Simultaneous Nadir Overpasses (SNOs) Predictions

Prediction of SNOs between AQUA and METOP-B Satellite Orbit:

Table of predicted SNOs for the next 14.0 days since TLE Epoch: 4/6/2018
Index Date (AQUA) Time (AQUA) Lat,Lon (AQUA) SZA (AQUA ) Date (METOP-B) Time (METOP-B) Lat,Lon (METOP-B) SZA (METOP-B ) Distance(km) Time Diff (sec)
1 04/07/2018 07:35:39 -73.47,-118.74 113.40 04/07/2018 07:34:30 -73.42,-120.54 113.37 57.24 69
2 04/07/2018 08:25:15 73.93, 47.91 67.08 04/07/2018 08:25:00 73.92, 47.95 67.07 1.53 15
3 04/07/2018 09:14:42 -73.98,-144.58 112.88 04/07/2018 09:15:40 -74.00,-144.53 112.87 2.05 58
4 04/10/2018 03:09:59 -73.69, -52.77 114.22 04/10/2018 03:08:47 -73.64, -53.64 114.23 27.58 72
5 04/10/2018 03:59:31 73.94, 114.32 66.04 04/10/2018 03:59:21 73.93, 114.38 66.03 2.11 10
6 04/10/2018 04:48:58 -74.00, -78.17 113.92 04/10/2018 04:50:01 -74.01, -78.09 113.91 3.31 63
7 04/12/2018 22:44:17 -73.81, 13.39 115.13 04/12/2018 22:43:05 -73.80, 13.15 115.12 7.51 72
8 04/12/2018 23:33:47 73.95,-179.29 65.02 04/12/2018 23:33:42 73.94,-179.19 65.00 3.37 5
9 04/13/2018 00:23:13 -73.96, -11.66 114.99 04/13/2018 00:24:23 -73.98, -11.77 114.98 3.67 70
10 04/15/2018 18:18:33 -73.89, 79.66 116.06 04/15/2018 18:17:24 -73.87, 79.71 116.08 2.81 69
11 04/15/2018 19:08:01 73.92,-112.79 63.97 04/15/2018 19:08:02 73.95,-112.77 63.99 2.50 1
12 04/15/2018 19:57:29 -74.04, 54.60 115.93 04/15/2018 19:58:42 -74.04, 54.79 115.94 6.02 73
13 04/18/2018 13:52:48 -73.87, 146.14 117.08 04/18/2018 13:51:45 -73.88, 146.14 117.06 1.28 63
14 04/18/2018 14:42:17 73.95, -46.42 63.00 04/18/2018 14:42:23 73.95, -46.34 63.00 2.33 6




NCC Satellite Simultaneous Nadir Overpasses (SNOs) Prediction Service
